User: anonymous   Login
Location: Ash Swamp
(41.5170°N, 74.6157°W)
Time: 22:39:43
(UTC+00:00)
Language:

CZ-4B DEB - Orbit

View from above orbital plane
View from above orbital plane
View from above satellite
View from above satellite

Ground track
Ground track

The orbit data is extracted from the following two-line orbital elements,

1 37182U 10051D   20271.28082879  .00012943  00000-0  29626-3 0  9991
2 37182  97.3273 337.4909 0002091 355.8167   4.3063 15.42924897552252
Epoch (UTC): 27 September 2020 06:44:23
Eccentricity: 0.0002091
inclination: 97.3273°
perigee height: 436 km
apogee height: 439 km
right ascension of ascending node: 337.4909°
argument of perigee: 355.8167°
revolutions per day: 15.42924897
mean anomaly at epoch: 4.3063°
orbit number at epoch: 55225

The dashed part of the orbit path shows where the satellite is in the earth's shadow,  

DLR